Tracking 18843 objects as of 21-November-2017
HD Live streaming from Space Station
objects crossing your sky now

IRIDIUM 128

Track IRIDIUM 128 now!
10-day predictions
IRIDIUM 128 is classified as:


NORAD ID: 42811
Int'l Code: 2017-039J
Perigee: 778.3 km
Apogee: 783.4 km
Inclination: 87.5 °
Period: 100.3 minutes
Semi major axis: 7151 km
RCS: Unknown
Launch date: June 25, 2017
Source: United States (US)
Launch site: AIR FORCE WESTERN TEST RANGE (AFWTR)
aabbcc
Your satellite tracking list
Your tracking list is empty




NASA's NSSDC Master Catalog

Two Line Element Set (TLE):
1 42811U 17039J   17324.38277284  .00000111  00000-0  32196-4 0  9992
2 42811  87.5022 238.7065 0003555  92.8075 267.3529 14.35407082 21238
Source of the keplerian elements: AFSPC